Precipitable_Water
0.21 0.12 0.10 0.09 0.09 0.12 0.12 0.12 0.11 0.11 0.10 0.09 0.09 0.09 0.09 0.08 0.09 0.11 0.12 0.14 0.15 0.12 0.10 0.11 0.11 0.11 0.12 0.12 0.13 0.13 0.14 0.14 0.14 0.13 0.13 0.13 0.13 0.13 0.14 0.14 0.14 0.15 0.15 0.17 0.20 0.21 0.21 0.21 0.22 0.24 0.25 0.25 0.25 0.26 0.26 0.26 0.26 0.27 0.27 0.27 0.26 0.29 0.32 0.32 0.32 0.32 0.32 0.30 0.31 0.32 0.31 0.29 0.32 0.32 0.33 0.34 0.36 0.37 0.42 0.46 0.48 0.48 0.49 0.52 0.53 0.55
0.17 0.11 0.10 0.10 0.12 0.13 0.12 0.13 0.13 0.11 0.11 0.10 0.09 0.09 0.09 0.09 0.08 0.11 0.11 0.14 0.17 0.12 0.11 0.13 0.11 0.11 0.12 0.12 0.12 0.13 0.13 0.11 0.12 0.12 0.12 0.12 0.13 0.13 0.13 0.13 0.13 0.14 0.17 0.18 0.19 0.21 0.21 0.21 0.22 0.24 0.25 0.25 0.23 0.24 0.25 0.24 0.25 0.26 0.28 0.27 0.26 0.29 0.30 0.31 0.31 0.31 0.31 0.31 0.29 0.27 0.27 0.28 0.29 0.31 0.30 0.29 0.34 0.38 0.43 0.49 0.52 0.53 0.54 0.55 0.55 0.57
0.11 0.09 0.10 0.14 0.13 0.13 0.13 0.12 0.12 0.11 0.10 0.10 0.09 0.09 0.09 0.09 0.10 0.12 0.12 0.14 0.15 0.13 0.10 0.12 0.10 0.09 0.10 0.12 0.12 0.12 0.11 0.11 0.12 0.12 0.11 0.11 0.12 0.13 0.13 0.13 0.14 0.15 0.16 0.17 0.18 0.20 0.20 0.21 0.22 0.24 0.25 0.25 0.24 0.24 0.24 0.25 0.26 0.27 0.27 0.26 0.26 0.27 0.28 0.30 0.32 0.31 0.29 0.31 0.32 0.30 0.31 0.30 0.30 0.34 0.34 0.35 0.41 0.45 0.48 0.54 0.60 0.64 0.66 0.65 0.62 0.60
0.09 0.09 0.12 0.13 0.13 0.12 0.12 0.12 0.12 0.12 0.12 0.10 0.10 0.09 0.08 0.09 0.09 0.08 0.11 0.13 0.13 0.12 0.10 0.11 0.10 0.09 0.10 0.11 0.11 0.11 0.11 0.10 0.11 0.13 0.13 0.14 0.13 0.13 0.13 0.14 0.14 0.14 0.16 0.16 0.18 0.18 0.19 0.20 0.22 0.23 0.24 0.24 0.24 0.24 0.25 0.26 0.25 0.26 0.26 0.25 0.25 0.27 0.29 0.30 0.31 0.30 0.32 0.32 0.33 0.34 0.34 0.35 0.33 0.32 0.37 0.37 0.42 0.48 0.54 0.60 0.71 0.77 0.78 0.75 0.72 0.71
0.09 0.11 0.15 0.13 0.13 0.12 0.11 0.11 0.11 0.11 0.10 0.11 0.10 0.09 0.08 0.09 0.09 0.09 0.10 0.12 0.13 0.14 0.14 0.12 0.09 0.08 0.08 0.08 0.09 0.11 0.12 0.12 0.12 0.13 0.14 0.15 0.15 0.15 0.15 0.16 0.16 0.15 0.16 0.16 0.17 0.18 0.19 0.20 0.20 0.22 0.23 0.24 0.23 0.23 0.24 0.25 0.26 0.26 0.24 0.24 0.25 0.27 0.27 0.29 0.30 0.30 0.32 0.32 0.31 0.32 0.34 0.35 0.32 0.33 0.33 0.36 0.40 0.49 0.61 0.73 0.81 0.84 0.84 0.83 0.82 0.81
0.13 0.15 0.15 0.14 0.13 0.13 0.12 0.11 0.11 0.10 0.09 0.10 0.11 0.10 0.10 0.10 0.09 0.10 0.10 0.09 0.09 0.08 0.12 0.10 0.06 0.06 0.07 0.08 0.08 0.10 0.10 0.10 0.11 0.12 0.12 0.13 0.14 0.14 0.14 0.14 0.16 0.17 0.17 0.17 0.17 0.18 0.19 0.20 0.21 0.22 0.23 0.22 0.22 0.23 0.24 0.26 0.26 0.26 0.25 0.25 0.26 0.27 0.28 0.28 0.29 0.31 0.32 0.30 0.29 0.28 0.26 0.24 0.24 0.23 0.27 0.31 0.38 0.54 0.68 0.75 0.82 0.83 0.86 0.88 0.89 0.89
0.19 0.20 0.17 0.14 0.13 0.13 0.12 0.11 0.12 0.12 0.09 0.08 0.09 0.11 0.11 0.11 0.10 0.10 0.10 0.09 0.08 0.07 0.11 0.13 0.07 0.06 0.07 0.08 0.08 0.08 0.09 0.09 0.11 0.10 0.10 0.12 0.13 0.14 0.14 0.14 0.15 0.15 0.16 0.18 0.18 0.19 0.19 0.20 0.21 0.21 0.21 0.22 0.22 0.23 0.26 0.27 0.27 0.26 0.26 0.26 0.26 0.26 0.27 0.29 0.30 0.32 0.32 0.30 0.29 0.28 0.26 0.24 0.23 0.23 0.28 0.39 0.50 0.63 0.75 0.81 0.82 0.85 0.90 0.93 0.94 0.94
0.23 0.21 0.20 0.18 0.15 0.13 0.12 0.10 0.12 0.12 0.10 0.09 0.14 0.12 0.12 0.11 0.10 0.10 0.10 0.09 0.08 0.11 0.11 0.11 0.10 0.07 0.06 0.06 0.09 0.09 0.08 0.08 0.08 0.09 0.10 0.11 0.11 0.12 0.12 0.13 0.13 0.14 0.15 0.15 0.16 0.17 0.18 0.19 0.20 0.19 0.21 0.22 0.22 0.24 0.25 0.26 0.26 0.25 0.26 0.26 0.26 0.28 0.28 0.30 0.31 0.31 0.32 0.29 0.29 0.28 0.27 0.26 0.25 0.26 0.30 0.44 0.56 0.71 0.80 0.84 0.85 0.88 0.92 0.96 0.97 0.95
0.26 0.24 0.24 0.21 0.19 0.16 0.13 0.12 0.13 0.13 0.11 0.11 0.15 0.14 0.12 0.12 0.11 0.11 0.11 0.10 0.11 0.09 0.07 0.09 0.11 0.07 0.06 0.07 0.08 0.08 0.07 0.07 0.07 0.08 0.09 0.09 0.10 0.10 0.11 0.11 0.12 0.13 0.14 0.15 0.15 0.16 0.16 0.17 0.19 0.20 0.20 0.22 0.23 0.24 0.24 0.24 0.25 0.27 0.27 0.26 0.27 0.28 0.29 0.30 0.31 0.31 0.32 0.31 0.31 0.29 0.28 0.25 0.27 0.29 0.34 0.46 0.61 0.70 0.81 0.83 0.85 0.87 0.94 0.98 0.98 0.97
0.31 0.30 0.29 0.28 0.25 0.20 0.19 0.19 0.18 0.16 0.11 0.13 0.16 0.16 0.15 0.14 0.13 0.12 0.11 0.11 0.11 0.09 0.06 0.08 0.09 0.06 0.06 0.06 0.08 0.08 0.07 0.07 0.07 0.08 0.08 0.08 0.09 0.10 0.11 0.11 0.12 0.12 0.13 0.14 0.15 0.16 0.16 0.18 0.18 0.19 0.21 0.21 0.22 0.24 0.25 0.26 0.27 0.27 0.27 0.26 0.27 0.27 0.29 0.30 0.30 0.32 0.32 0.32 0.32 0.30 0.28 0.26 0.26 0.30 0.36 0.46 0.58 0.70 0.79 0.80 0.84 0.90 0.94 0.99 0.99 0.99
0.31 0.35 0.34 0.29 0.25 0.25 0.25 0.25 0.23 0.21 0.19 0.19 0.17 0.14 0.14 0.13 0.13 0.13 0.13 0.11 0.10 0.07 0.06 0.08 0.10 0.07 0.05 0.05 0.06 0.06 0.06 0.07 0.07 0.08 0.08 0.09 0.10 0.10 0.11 0.11 0.12 0.12 0.13 0.14 0.14 0.16 0.16 0.18 0.20 0.20 0.20 0.21 0.23 0.24 0.25 0.26 0.26 0.27 0.27 0.27 0.26 0.27 0.29 0.30 0.30 0.31 0.31 0.32 0.32 0.29 0.28 0.27 0.26 0.28 0.34 0.43 0.54 0.68 0.75 0.79 0.84 0.87 0.90 0.98 1.00 0.99
0.31 0.32 0.29 0.29 0.31 0.29 0.28 0.25 0.27 0.26 0.24 0.20 0.16 0.14 0.13 0.12 0.13 0.12 0.11 0.12 0.07 0.06 0.07 0.10 0.09 0.09 0.05 0.05 0.06 0.07 0.08 0.07 0.07 0.07 0.07 0.08 0.09 0.09 0.10 0.12 0.14 0.14 0.15 0.15 0.15 0.15 0.16 0.17 0.19 0.20 0.20 0.21 0.22 0.23 0.24 0.25 0.26 0.27 0.27 0.28 0.27 0.27 0.28 0.29 0.30 0.31 0.31 0.32 0.31 0.31 0.30 0.27 0.27 0.28 0.32 0.39 0.50 0.63 0.70 0.79 0.83 0.85 0.89 0.97 1.01 1.02
0.26 0.28 0.31 0.31 0.33 0.29 0.26 0.24 0.25 0.26 0.25 0.23 0.20 0.16 0.11 0.10 0.10 0.07 0.09 0.07 0.06 0.05 0.08 0.10 0.10 0.08 0.07 0.05 0.06 0.06 0.08 0.08 0.08 0.09 0.08 0.08 0.09 0.11 0.12 0.13 0.14 0.14 0.14 0.15 0.16 0.16 0.16 0.17 0.18 0.19 0.21 0.22 0.22 0.22 0.23 0.24 0.26 0.28 0.28 0.28 0.26 0.26 0.28 0.29 0.31 0.30 0.31 0.32 0.31 0.30 0.29 0.28 0.28 0.28 0.30 0.37 0.49 0.59 0.65 0.72 0.78 0.82 0.89 1.04 1.06 1.04
0.23 0.29 0.31 0.31 0.32 0.32 0.28 0.21 0.21 0.20 0.22 0.21 0.19 0.17 0.13 0.10 0.09 0.07 0.07 0.08 0.07 0.08 0.09 0.09 0.11 0.07 0.07 0.07 0.07 0.07 0.08 0.08 0.08 0.08 0.09 0.10 0.10 0.11 0.11 0.12 0.12 0.13 0.13 0.14 0.16 0.17 0.17 0.19 0.20 0.20 0.20 0.20 0.21 0.22 0.23 0.25 0.26 0.28 0.28 0.28 0.27 0.27 0.29 0.30 0.30 0.31 0.31 0.31 0.32 0.31 0.30 0.28 0.28 0.27 0.29 0.35 0.47 0.57 0.65 0.74 0.81 0.90 1.01 1.06 1.02 1.00
0.16 0.17 0.23 0.27 0.24 0.31 0.29 0.25 0.24 0.22 0.23 0.23 0.24 0.22 0.19 0.17 0.13 0.09 0.09 0.07 0.07 0.07 0.09 0.11 0.09 0.07 0.05 0.05 0.08 0.09 0.10 0.11 0.10 0.10 0.10 0.11 0.11 0.11 0.12 0.12 0.12 0.12 0.13 0.15 0.16 0.17 0.18 0.19 0.19 0.19 0.20 0.20 0.21 0.23 0.24 0.25 0.26 0.28 0.28 0.29 0.28 0.28 0.29 0.29 0.29 0.31 0.31 0.31 0.32 0.31 0.30 0.28 0.28 0.28 0.30 0.36 0.48 0.55 0.65 0.78 0.90 1.01 1.06 1.05 1.02 0.99
0.21 0.19 0.25 0.31 0.32 0.33 0.31 0.32 0.32 0.28 0.26 0.27 0.26 0.25 0.20 0.17 0.18 0.15 0.14 0.13 0.12 0.12 0.11 0.12 0.10 0.10 0.08 0.09 0.10 0.11 0.11 0.12 0.12 0.12 0.11 0.11 0.11 0.12 0.11 0.11 0.12 0.12 0.13 0.15 0.16 0.17 0.18 0.18 0.19 0.19 0.19 0.20 0.22 0.23 0.23 0.24 0.27 0.28 0.29 0.30 0.29 0.28 0.28 0.29 0.30 0.30 0.31 0.31 0.31 0.30 0.28 0.28 0.28 0.29 0.31 0.35 0.46 0.55 0.66 0.79 0.95 1.07 1.06 1.05 1.11 1.00
0.23 0.20 0.28 0.31 0.34 0.32 0.31 0.33 0.32 0.32 0.20 0.24 0.24 0.19 0.19 0.21 0.19 0.15 0.15 0.15 0.14 0.12 0.10 0.13 0.11 0.12 0.12 0.11 0.11 0.11 0.11 0.11 0.12 0.12 0.12 0.12 0.12 0.12 0.12 0.12 0.13 0.13 0.14 0.15 0.16 0.16 0.17 0.18 0.19 0.19 0.20 0.21 0.22 0.23 0.24 0.24 0.26 0.27 0.29 0.29 0.28 0.28 0.29 0.29 0.30 0.30 0.30 0.30 0.29 0.29 0.29 0.28 0.27 0.27 0.28 0.32 0.41 0.51 0.62 0.74 0.93 1.09 1.07 1.06 1.14 1.06
0.23 0.22 0.28 0.28 0.28 0.34 0.37 0.36 0.35 0.33 0.34 0.28 0.22 0.23 0.26 0.26 0.24 0.18 0.14 0.14 0.13 0.11 0.11 0.12 0.10 0.10 0.10 0.08 0.11 0.11 0.10 0.10 0.11 0.11 0.12 0.12 0.13 0.12 0.13 0.13 0.14 0.14 0.15 0.16 0.17 0.18 0.18 0.19 0.19 0.20 0.22 0.23 0.24 0.24 0.24 0.25 0.27 0.29 0.29 0.27 0.25 0.26 0.25 0.27 0.29 0.29 0.29 0.29 0.29 0.29 0.29 0.28 0.27 0.27 0.29 0.33 0.38 0.46 0.55 0.66 0.89 1.11 1.08 1.06 1.15 1.13
0.31 0.22 0.25 0.28 0.28 0.32 0.37 0.36 0.32 0.34 0.36 0.29 0.25 0.30 0.22 0.17 0.16 0.18 0.16 0.12 0.11 0.11 0.11 0.11 0.12 0.11 0.10 0.09 0.10 0.10 0.10 0.11 0.12 0.12 0.12 0.12 0.13 0.14 0.15 0.15 0.16 0.16 0.16 0.16 0.17 0.18 0.19 0.19 0.20 0.22 0.24 0.25 0.24 0.24 0.25 0.26 0.28 0.28 0.27 0.27 0.27 0.26 0.27 0.28 0.29 0.30 0.32 0.32 0.31 0.31 0.29 0.29 0.27 0.27 0.28 0.31 0.34 0.40 0.46 0.56 0.79 1.06 1.09 1.10 1.17 1.16
0.31 0.21 0.23 0.30 0.30 0.31 0.32 0.31 0.24 0.27 0.33 0.34 0.33 0.27 0.27 0.24 0.21 0.18 0.17 0.16 0.14 0.12 0.11 0.11 0.11 0.09 0.11 0.10 0.10 0.10 0.11 0.12 0.13 0.13 0.13 0.14 0.15 0.15 0.16 0.16 0.16 0.16 0.17 0.18 0.18 0.19 0.19 0.20 0.22 0.24 0.24 0.24 0.23 0.24 0.25 0.26 0.27 0.27 0.28 0.28 0.28 0.30 0.30 0.30 0.29 0.30 0.29 0.31 0.31 0.30 0.31 0.30 0.30 0.29 0.28 0.29 0.31 0.34 0.40 0.50 0.68 0.99 1.07 1.09 1.18 1.21
0.28 0.31 0.19 0.26 0.34 0.33 0.24 0.27 0.24 0.26 0.26 0.27 0.27 0.25 0.25 0.24 0.26 0.24 0.21 0.18 0.16 0.14 0.13 0.11 0.10 0.10 0.11 0.13 0.13 0.13 0.13 0.14 0.15 0.15 0.15 0.15 0.15 0.15 0.15 0.16 0.17 0.18 0.19 0.20 0.20 0.20 0.21 0.22 0.24 0.25 0.26 0.25 0.26 0.27 0.28 0.28 0.28 0.29 0.30 0.30 0.30 0.28 0.28 0.28 0.28 0.28 0.28 0.30 0.30 0.30 0.29 0.29 0.30 0.30 0.32 0.31 0.32 0.33 0.37 0.45 0.58 0.84 1.06 1.10 1.14 1.21
0.27 0.28 0.22 0.24 0.25 0.25 0.26 0.30 0.28 0.28 0.30 0.30 0.29 0.27 0.27 0.23 0.21 0.18 0.17 0.20 0.18 0.16 0.14 0.12 0.10 0.12 0.13 0.15 0.15 0.15 0.15 0.15 0.16 0.16 0.16 0.17 0.17 0.17 0.17 0.18 0.19 0.20 0.21 0.21 0.22 0.23 0.23 0.23 0.24 0.26 0.26 0.26 0.27 0.28 0.28 0.28 0.28 0.29 0.29 0.30 0.30 0.30 0.29 0.28 0.28 0.27 0.28 0.29 0.29 0.28 0.29 0.29 0.30 0.31 0.32 0.32 0.33 0.33 0.35 0.40 0.50 0.68 0.98 1.06 1.12 1.19
0.30 0.28 0.26 0.23 0.23 0.25 0.28 0.32 0.35 0.34 0.33 0.32 0.32 0.29 0.31 0.28 0.26 0.22 0.17 0.18 0.18 0.18 0.18 0.17 0.13 0.12 0.16 0.16 0.16 0.15 0.15 0.15 0.16 0.16 0.15 0.16 0.16 0.17 0.18 0.20 0.20 0.22 0.22 0.22 0.24 0.24 0.25 0.25 0.25 0.25 0.25 0.26 0.27 0.27 0.27 0.28 0.29 0.30 0.30 0.30 0.31 0.30 0.30 0.30 0.30 0.30 0.29 0.28 0.27 0.28 0.29 0.29 0.29 0.30 0.30 0.31 0.33 0.33 0.34 0.37 0.42 0.58 0.76 1.00 1.07 1.14
0.34 0.26 0.22 0.24 0.27 0.30 0.33 0.35 0.34 0.34 0.33 0.30 0.31 0.32 0.31 0.28 0.27 0.23 0.22 0.24 0.20 0.19 0.18 0.16 0.14 0.13 0.16 0.18 0.17 0.17 0.17 0.17 0.17 0.17 0.16 0.16 0.17 0.17 0.18 0.19 0.20 0.21 0.24 0.24 0.25 0.26 0.27 0.27 0.27 0.26 0.26 0.27 0.27 0.28 0.28 0.29 0.30 0.31 0.31 0.32 0.32 0.32 0.32 0.33 0.33 0.32 0.30 0.28 0.27 0.28 0.28 0.28 0.29 0.28 0.29 0.28 0.30 0.32 0.34 0.36 0.38 0.46 0.58 0.81 1.03 1.05
0.22 0.24 0.23 0.18 0.20 0.21 0.24 0.28 0.29 0.33 0.32 0.29 0.27 0.28 0.29 0.31 0.31 0.31 0.29 0.28 0.22 0.21 0.19 0.17 0.13 0.13 0.16 0.18 0.19 0.19 0.18 0.17 0.17 0.18 0.19 0.18 0.18 0.19 0.20 0.21 0.21 0.22 0.24 0.24 0.24 0.25 0.27 0.27 0.27 0.27 0.27 0.26 0.27 0.28 0.29 0.30 0.31 0.31 0.32 0.33 0.33 0.34 0.35 0.35 0.35 0.33 0.31 0.29 0.27 0.28 0.27 0.27 0.28 0.27 0.27 0.27 0.29 0.30 0.32 0.35 0.36 0.39 0.45 0.58 0.80 1.03
0.23 0.20 0.21 0.15 0.13 0.12 0.12 0.13 0.15 0.19 0.23 0.26 0.28 0.28 0.30 0.30 0.30 0.28 0.24 0.25 0.20 0.23 0.23 0.18 0.17 0.18 0.19 0.19 0.18 0.18 0.19 0.18 0.19 0.19 0.21 0.21 0.20 0.21 0.22 0.23 0.23 0.23 0.24 0.25 0.25 0.26 0.26 0.27 0.28 0.27 0.27 0.28 0.28 0.28 0.29 0.30 0.31 0.31 0.32 0.33 0.34 0.34 0.34 0.34 0.35 0.34 0.32 0.30 0.28 0.27 0.27 0.27 0.27 0.27 0.27 0.28 0.28 0.29 0.31 0.33 0.34 0.36 0.40 0.46 0.54 0.76
0.21 0.22 0.22 0.20 0.19 0.16 0.16 0.17 0.20 0.21 0.22 0.22 0.25 0.26 0.26 0.29 0.30 0.30 0.29 0.25 0.23 0.24 0.24 0.24 0.21 0.19 0.19 0.19 0.19 0.19 0.19 0.19 0.19 0.20 0.20 0.21 0.22 0.22 0.22 0.23 0.24 0.24 0.25 0.25 0.26 0.27 0.27 0.27 0.27 0.28 0.28 0.28 0.28 0.29 0.30 0.30 0.30 0.30 0.31 0.32 0.33 0.34 0.35 0.35 0.36 0.36 0.35 0.33 0.30 0.28 0.27 0.27 0.27 0.27 0.28 0.28 0.29 0.30 0.31 0.32 0.33 0.33 0.35 0.40 0.45 0.52
0.20 0.17 0.19 0.20 0.21 0.21 0.22 0.22 0.24 0.24 0.20 0.22 0.22 0.23 0.26 0.26 0.27 0.26 0.24 0.23 0.28 0.25 0.22 0.27 0.27 0.24 0.21 0.23 0.23 0.22 0.23 0.23 0.23 0.23 0.23 0.23 0.23 0.23 0.24 0.24 0.25 0.25 0.26 0.26 0.27 0.27 0.27 0.28 0.29 0.29 0.29 0.29 0.29 0.30 0.30 0.30 0.30 0.29 0.29 0.30 0.31 0.33 0.33 0.34 0.34 0.34 0.35 0.35 0.34 0.31 0.28 0.28 0.28 0.28 0.28 0.29 0.30 0.30 0.31 0.32 0.33 0.33 0.34 0.36 0.39 0.42
0.17 0.15 0.18 0.19 0.19 0.21 0.22 0.23 0.25 0.25 0.25 0.23 0.22 0.22 0.23 0.26 0.26 0.25 0.25 0.27 0.27 0.24 0.22 0.26 0.27 0.25 0.24 0.26 0.27 0.27 0.26 0.26 0.27 0.27 0.27 0.26 0.26 0.25 0.25 0.25 0.26 0.27 0.27 0.26 0.26 0.27 0.27 0.28 0.29 0.30 0.30 0.29 0.29 0.29 0.29 0.29 0.29 0.29 0.30 0.31 0.31 0.32 0.32 0.33 0.33 0.33 0.33 0.34 0.35 0.34 0.32 0.30 0.29 0.29 0.29 0.29 0.29 0.30 0.30 0.31 0.32 0.34 0.34 0.34 0.35 0.38
0.17 0.15 0.16 0.19 0.17 0.18 0.19 0.22 0.23 0.23 0.24 0.25 0.23 0.22 0.23 0.24 0.24 0.25 0.25 0.26 0.26 0.26 0.27 0.27 0.28 0.27 0.28 0.28 0.30 0.29 0.31 0.30 0.31 0.30 0.30 0.29 0.28 0.27 0.27 0.26 0.27 0.27 0.27 0.27 0.27 0.27 0.27 0.28 0.29 0.30 0.30 0.29 0.29 0.29 0.29 0.29 0.29 0.29 0.29 0.30 0.30 0.30 0.31 0.32 0.32 0.32 0.32 0.33 0.34 0.36 0.36 0.34 0.32 0.30 0.30 0.29 0.28 0.28 0.29 0.30 0.31 0.31 0.32 0.34 0.35 0.35
0.16 0.13 0.17 0.17 0.15 0.15 0.17 0.19 0.21 0.21 0.21 0.21 0.24 0.24 0.23 0.24 0.24 0.24 0.24 0.24 0.25 0.26 0.26 0.26 0.25 0.26 0.29 0.31 0.32 0.33 0.33 0.34 0.33 0.33 0.32 0.30 0.29 0.29 0.28 0.28 0.28 0.28 0.28 0.28 0.27 0.27 0.27 0.28 0.29 0.29 0.29 0.29 0.29 0.30 0.30 0.31 0.31 0.32 0.32 0.31 0.30 0.30 0.31 0.31 0.31 0.32 0.33 0.32 0.33 0.35 0.37 0.36 0.35 0.33 0.30 0.30 0.29 0.28 0.28 0.28 0.30 0.30 0.30 0.32 0.33 0.34
0.17 0.14 0.16 0.15 0.13 0.13 0.15 0.16 0.18 0.19 0.19 0.19 0.20 0.21 0.24 0.23 0.23 0.24 0.23 0.24 0.22 0.20 0.22 0.24 0.23 0.23 0.27 0.32 0.34 0.33 0.33 0.32 0.32 0.34 0.35 0.36 0.37 0.36 0.35 0.33 0.31 0.30 0.30 0.30 0.29 0.28 0.28 0.28 0.29 0.29 0.29 0.29 0.29 0.29 0.30 0.31 0.31 0.32 0.32 0.33 0.32 0.32 0.31 0.31 0.31 0.32 0.33 0.33 0.34 0.34 0.35 0.36 0.37 0.36 0.34 0.32 0.31 0.30 0.29 0.28 0.28 0.29 0.30 0.31 0.31 0.33
0.16 0.14 0.12 0.13 0.11 0.11 0.14 0.15 0.15 0.16 0.16 0.15 0.17 0.20 0.22 0.25 0.25 0.26 0.26 0.26 0.24 0.22 0.20 0.20 0.21 0.25 0.27 0.32 0.31 0.30 0.31 0.31 0.32 0.33 0.34 0.35 0.36 0.37 0.37 0.38 0.40 0.38 0.35 0.34 0.33 0.31 0.30 0.30 0.30 0.30 0.30 0.30 0.30 0.30 0.31 0.32 0.32 0.32 0.32 0.33 0.34 0.35 0.34 0.32 0.32 0.32 0.32 0.34 0.34 0.34 0.34 0.35 0.36 0.37 0.37 0.35 0.34 0.33 0.32 0.30 0.28 0.28 0.29 0.30 0.32 0.34
0.16 0.14 0.13 0.14 0.10 0.10 0.12 0.14 0.15 0.13 0.10 0.11 0.18 0.24 0.26 0.24 0.25 0.23 0.24 0.25 0.26 0.27 0.23 0.22 0.22 0.25 0.28 0.29 0.28 0.26 0.28 0.30 0.31 0.32 0.34 0.33 0.33 0.34 0.36 0.38 0.40 0.41 0.38 0.37 0.36 0.34 0.33 0.32 0.32 0.31 0.31 0.31 0.31 0.32 0.32 0.33 0.33 0.33 0.33 0.34 0.35 0.35 0.36 0.35 0.34 0.34 0.33 0.34 0.34 0.34 0.34 0.34 0.34 0.36 0.37 0.39 0.38 0.37 0.35 0.32 0.30 0.29 0.30 0.31 0.33 0.33
0.12 0.13 0.12 0.12 0.10 0.10 0.11 0.12 0.11 0.08 0.09 0.14 0.21 0.24 0.27 0.29 0.28 0.27 0.26 0.27 0.27 0.28 0.28 0.26 0.25 0.24 0.25 0.26 0.27 0.27 0.30 0.32 0.33 0.33 0.33 0.33 0.33 0.33 0.35 0.37 0.39 0.40 0.40 0.39 0.38 0.38 0.35 0.34 0.33 0.32 0.32 0.33 0.34 0.35 0.35 0.35 0.35 0.35 0.34 0.34 0.34 0.35 0.37 0.38 0.37 0.36 0.36 0.35 0.35 0.36 0.35 0.35 0.34 0.34 0.37 0.39 0.40 0.39 0.38 0.36 0.34 0.32 0.31 0.32 0.32 0.33
0.11 0.11 0.11 0.11 0.11 0.11 0.10 0.09 0.07 0.08 0.13 0.16 0.18 0.21 0.23 0.24 0.27 0.29 0.26 0.28 0.29 0.29 0.29 0.28 0.27 0.25 0.23 0.24 0.25 0.27 0.30 0.32 0.33 0.33 0.33 0.32 0.33 0.32 0.32 0.34 0.38 0.39 0.40 0.41 0.41 0.42 0.40 0.38 0.37 0.36 0.35 0.37 0.37 0.37 0.38 0.37 0.37 0.35 0.33 0.34 0.34 0.35 0.36 0.37 0.38 0.38 0.38 0.37 0.37 0.37 0.38 0.38 0.38 0.37 0.38 0.39 0.40 0.40 0.39 0.39 0.37 0.34 0.34 0.34 0.35 0.36
0.10 0.10 0.10 0.09 0.11 0.08 0.08 0.09 0.09 0.12 0.12 0.12 0.13 0.15 0.17 0.17 0.20 0.24 0.20 0.24 0.29 0.29 0.29 0.27 0.26 0.26 0.25 0.24 0.24 0.25 0.28 0.31 0.30 0.30 0.31 0.31 0.32 0.32 0.31 0.32 0.37 0.39 0.40 0.41 0.42 0.42 0.43 0.43 0.41 0.40 0.40 0.40 0.40 0.39 0.38 0.38 0.38 0.36 0.35 0.34 0.35 0.35 0.36 0.37 0.37 0.38 0.38 0.38 0.39 0.39 0.39 0.40 0.41 0.40 0.40 0.40 0.40 0.40 0.40 0.40 0.40 0.40 0.39 0.36 0.36 0.36
0.10 0.08 0.09 0.08 0.08 0.09 0.08 0.07 0.08 0.08 0.07 0.08 0.12 0.14 0.16 0.16 0.18 0.19 0.21 0.22 0.30 0.29 0.28 0.26 0.23 0.22 0.22 0.21 0.20 0.22 0.26 0.25 0.23 0.23 0.27 0.31 0.33 0.32 0.33 0.33 0.35 0.38 0.39 0.40 0.42 0.42 0.42 0.42 0.42 0.42 0.42 0.40 0.40 0.40 0.40 0.40 0.39 0.38 0.36 0.35 0.35 0.36 0.36 0.37 0.37 0.38 0.38 0.39 0.39 0.40 0.40 0.40 0.41 0.41 0.41 0.41 0.40 0.41 0.41 0.42 0.43 0.43 0.42 0.39 0.37 0.36
0.10 0.11 0.10 0.08 0.07 0.07 0.08 0.07 0.07 0.06 0.07 0.10 0.11 0.15 0.17 0.21 0.21 0.23 0.22 0.18 0.25 0.29 0.30 0.28 0.26 0.25 0.23 0.21 0.21 0.23 0.22 0.19 0.18 0.19 0.25 0.30 0.31 0.31 0.30 0.30 0.32 0.36 0.38 0.38 0.39 0.39 0.40 0.41 0.41 0.41 0.41 0.41 0.39 0.40 0.41 0.40 0.40 0.39 0.37 0.37 0.37 0.37 0.36 0.36 0.37 0.39 0.39 0.40 0.40 0.40 0.40 0.40 0.40 0.41 0.42 0.41 0.42 0.43 0.42 0.42 0.43 0.44 0.45 0.43 0.41 0.39
0.08 0.09 0.09 0.08 0.08 0.08 0.08 0.07 0.07 0.08 0.08 0.11 0.11 0.12 0.19 0.19 0.21 0.19 0.12 0.14 0.24 0.29 0.31 0.31 0.29 0.28 0.25 0.24 0.24 0.22 0.22 0.18 0.16 0.16 0.22 0.27 0.29 0.29 0.28 0.28 0.32 0.34 0.36 0.38 0.39 0.39 0.40 0.41 0.41 0.40 0.40 0.39 0.40 0.41 0.41 0.41 0.40 0.39 0.38 0.37 0.38 0.37 0.37 0.37 0.39 0.41 0.41 0.41 0.40 0.40 0.40 0.40 0.40 0.41 0.42 0.42 0.43 0.45 0.44 0.45 0.44 0.45 0.45 0.45 0.44 0.42
0.07 0.07 0.09 0.07 0.08 0.08 0.08 0.08 0.09 0.09 0.12 0.13 0.12 0.12 0.13 0.15 0.15 0.12 0.11 0.18 0.27 0.26 0.28 0.30 0.30 0.30 0.31 0.29 0.26 0.23 0.24 0.23 0.20 0.20 0.24 0.28 0.27 0.28 0.28 0.30 0.32 0.34 0.35 0.36 0.38 0.39 0.39 0.39 0.40 0.39 0.40 0.40 0.41 0.41 0.41 0.41 0.39 0.38 0.38 0.38 0.38 0.37 0.38 0.40 0.42 0.43 0.42 0.41 0.40 0.40 0.40 0.40 0.41 0.40 0.42 0.44 0.44 0.46 0.46 0.46 0.45 0.46 0.46 0.46 0.47 0.45
0.06 0.06 0.08 0.09 0.08 0.08 0.08 0.08 0.08 0.09 0.13 0.14 0.13 0.12 0.15 0.13 0.09 0.10 0.20 0.27 0.27 0.28 0.28 0.29 0.29 0.31 0.31 0.29 0.29 0.29 0.29 0.28 0.28 0.29 0.29 0.27 0.26 0.26 0.28 0.30 0.31 0.33 0.35 0.37 0.38 0.38 0.38 0.38 0.39 0.39 0.39 0.40 0.42 0.42 0.42 0.41 0.39 0.38 0.38 0.38 0.37 0.38 0.40 0.41 0.42 0.42 0.42 0.41 0.40 0.40 0.40 0.40 0.41 0.42 0.43 0.44 0.46 0.46 0.46 0.47 0.47 0.47 0.48 0.48 0.48 0.47
0.06 0.05 0.05 0.06 0.07 0.08 0.09 0.08 0.07 0.06 0.11 0.13 0.13 0.13 0.17 0.11 0.13 0.22 0.25 0.27 0.29 0.28 0.27 0.29 0.29 0.30 0.33 0.30 0.31 0.30 0.28 0.27 0.28 0.29 0.30 0.30 0.28 0.27 0.28 0.30 0.30 0.31 0.33 0.34 0.35 0.37 0.37 0.37 0.37 0.38 0.38 0.40 0.40 0.41 0.41 0.40 0.39 0.38 0.38 0.37 0.38 0.40 0.41 0.41 0.41 0.42 0.42 0.42 0.41 0.40 0.41 0.41 0.41 0.42 0.43 0.45 0.46 0.46 0.46 0.47 0.47 0.48 0.49 0.49 0.48 0.48
0.06 0.05 0.05 0.06 0.07 0.06 0.07 0.07 0.07 0.11 0.15 0.16 0.14 0.11 0.16 0.17 0.22 0.23 0.24 0.24 0.26 0.27 0.27 0.28 0.29 0.30 0.34 0.34 0.32 0.31 0.30 0.28 0.28 0.29 0.30 0.29 0.29 0.28 0.29 0.30 0.32 0.33 0.34 0.35 0.36 0.36 0.37 0.36 0.37 0.37 0.38 0.39 0.39 0.40 0.41 0.40 0.38 0.38 0.38 0.37 0.40 0.41 0.41 0.41 0.41 0.41 0.41 0.40 0.40 0.41 0.41 0.42 0.42 0.43 0.44 0.45 0.46 0.46 0.46 0.46 0.47 0.48 0.48 0.49 0.48 0.47
0.07 0.07 0.07 0.05 0.06 0.06 0.07 0.10 0.15 0.17 0.19 0.21 0.20 0.20 0.20 0.24 0.27 0.26 0.26 0.24 0.24 0.25 0.28 0.27 0.27 0.30 0.33 0.35 0.34 0.33 0.31 0.32 0.30 0.30 0.28 0.28 0.28 0.28 0.28 0.29 0.32 0.33 0.35 0.35 0.36 0.36 0.36 0.35 0.35 0.36 0.36 0.38 0.38 0.39 0.39 0.39 0.38 0.38 0.37 0.38 0.40 0.40 0.40 0.41 0.41 0.40 0.40 0.40 0.40 0.40 0.41 0.43 0.43 0.44 0.45 0.46 0.46 0.45 0.46 0.46 0.47 0.47 0.48 0.48 0.47 0.46
0.09 0.09 0.10 0.10 0.08 0.09 0.10 0.11 0.14 0.18 0.21 0.20 0.23 0.23 0.23 0.26 0.30 0.27 0.25 0.24 0.25 0.27 0.27 0.26 0.28 0.30 0.33 0.36 0.34 0.33 0.34 0.34 0.33 0.32 0.30 0.29 0.28 0.28 0.28 0.28 0.29 0.32 0.33 0.34 0.34 0.34 0.34 0.34 0.34 0.34 0.34 0.36 0.37 0.38 0.39 0.39 0.38 0.37 0.37 0.39 0.40 0.40 0.41 0.41 0.40 0.40 0.40 0.40 0.40 0.40 0.41 0.42 0.44 0.44 0.46 0.46 0.47 0.46 0.46 0.45 0.46 0.46 0.46 0.46 0.45 0.45
0.11 0.11 0.12 0.11 0.12 0.11 0.08 0.14 0.12 0.14 0.20 0.21 0.22 0.23 0.26 0.25 0.25 0.26 0.25 0.25 0.26 0.27 0.28 0.28 0.29 0.30 0.31 0.34 0.34 0.33 0.35 0.36 0.34 0.32 0.32 0.30 0.28 0.27 0.27 0.26 0.28 0.29 0.30 0.31 0.32 0.32 0.32 0.32 0.31 0.32 0.33 0.33 0.35 0.37 0.38 0.38 0.38 0.38 0.39 0.39 0.40 0.40 0.41 0.41 0.40 0.40 0.40 0.40 0.40 0.41 0.41 0.42 0.43 0.44 0.46 0.47 0.47 0.46 0.46 0.46 0.46 0.46 0.46 0.45 0.44 0.45
0.09 0.12 0.11 0.11 0.10 0.10 0.09 0.11 0.14 0.16 0.18 0.20 0.20 0.19 0.20 0.23 0.23 0.24 0.25 0.27 0.28 0.29 0.29 0.29 0.30 0.28 0.30 0.30 0.31 0.33 0.34 0.36 0.35 0.33 0.32 0.31 0.30 0.29 0.28 0.28 0.28 0.30 0.31 0.31 0.30 0.30 0.30 0.31 0.31 0.31 0.31 0.31 0.33 0.35 0.36 0.37 0.38 0.39 0.39 0.40 0.40 0.40 0.40 0.40 0.40 0.40 0.40 0.40 0.41 0.41 0.42 0.42 0.43 0.43 0.44 0.45 0.46 0.44 0.44 0.44 0.45 0.45 0.44 0.44 0.44 0.44
0.11 0.14 0.10 0.13 0.11 0.12 0.15 0.16 0.16 0.15 0.14 0.14 0.15 0.18 0.20 0.21 0.21 0.21 0.24 0.25 0.26 0.27 0.28 0.30 0.31 0.29 0.29 0.27 0.29 0.31 0.33 0.35 0.36 0.35 0.34 0.33 0.31 0.31 0.30 0.30 0.30 0.31 0.31 0.30 0.29 0.28 0.27 0.28 0.29 0.30 0.31 0.31 0.33 0.34 0.34 0.35 0.37 0.39 0.39 0.40 0.40 0.41 0.40 0.39 0.40 0.40 0.41 0.41 0.42 0.41 0.42 0.43 0.43 0.43 0.43 0.44 0.44 0.44 0.43 0.42 0.43 0.44 0.45 0.47 0.47 0.46
0.11 0.10 0.10 0.10 0.09 0.09 0.09 0.09 0.11 0.09 0.09 0.12 0.14 0.16 0.19 0.21 0.20 0.19 0.22 0.23 0.24 0.25 0.27 0.27 0.28 0.29 0.29 0.30 0.30 0.32 0.32 0.34 0.36 0.36 0.35 0.35 0.33 0.32 0.32 0.30 0.31 0.31 0.31 0.30 0.29 0.28 0.27 0.27 0.27 0.28 0.30 0.32 0.34 0.34 0.34 0.35 0.36 0.38 0.40 0.40 0.41 0.41 0.39 0.39 0.39 0.40 0.40 0.41 0.42 0.42 0.42 0.43 0.43 0.43 0.43 0.43 0.42 0.42 0.42 0.45 0.46 0.46 0.45 0.45 0.47 0.49
0.10 0.09 0.09 0.08 0.08 0.07 0.09 0.09 0.10 0.10 0.11 0.12 0.14 0.16 0.16 0.16 0.17 0.19 0.21 0.22 0.24 0.25 0.25 0.25 0.25 0.26 0.26 0.28 0.31 0.31 0.31 0.32 0.34 0.37 0.36 0.36 0.36 0.35 0.34 0.33 0.31 0.31 0.30 0.30 0.29 0.29 0.28 0.28 0.28 0.28 0.29 0.32 0.34 0.35 0.35 0.35 0.36 0.37 0.39 0.40 0.41 0.40 0.40 0.40 0.39 0.39 0.40 0.41 0.41 0.42 0.42 0.43 0.43 0.43 0.43 0.43 0.41 0.40 0.39 0.40 0.44 0.47 0.48 0.48 0.48 0.49
Wind_Speed
33 34 36 37 36 35 35 36 34 29 28 29 30 30 31 31 30 28 27 27 28 30 33 34 36 37 36 35 34 33 33 35 35 34 34 33 33 34 35 35 36 36 35 32 32 32 32 33 32 30 30 29 29 28 28 27 27 27 27 27 27 26 26 26 25 25 25 26 27 27 28 29 29 30 31 32 34 35 36 36 37 38 38 39 40 41
33 37 39 37 33 33 34 35 34 32 31 31 32 32 32 33 31 28 27 28 28 30 32 31 35 38 36 35 35 34 34 36 35 34 35 35 35 35 36 37 37 36 34 32 32 32 33 33 32 30 30 29 29 28 28 28 27 27 27 27 27 27 26 26 26 25 26 26 27 27 28 29 29 30 31 33 34 35 35 36 37 38 38 39 39 40
36 39 39 34 31 32 34 35 36 36 35 34 33 34 34 33 31 30 29 29 29 31 32 31 34 39 37 36 36 35 35 37 36 36 37 37 36 35 36 37 37 36 35 34 33 33 33 33 32 31 30 30 29 29 29 28 27 27 27 27 27 27 26 26 26 25 26 27 27 28 28 28 29 30 31 33 33 34 35 36 37 37 38 38 39 41
37 39 36 33 32 34 35 36 37 36 36 36 35 35 36 33 31 31 30 29 30 31 32 31 34 38 38 36 37 36 37 37 36 35 36 35 35 35 36 36 36 36 36 34 34 34 33 32 31 31 30 30 29 29 29 29 28 28 28 28 27 27 26 26 25 26 26 27 27 28 28 28 29 30 32 33 33 33 34 35 36 36 36 38 40 42
38 35 33 33 34 36 36 36 37 36 37 37 37 38 37 33 31 31 29 29 30 31 31 31 33 38 38 35 35 34 34 35 34 34 34 34 35 35 35 36 36 36 36 35 34 34 33 32 31 31 30 29 30 30 30 29 28 28 28 27 27 27 26 25 25 26 26 26 27 27 27 28 29 31 31 32 32 32 33 33 33 34 36 39 41 43
39 35 33 34 35 36 36 36 36 36 37 37 38 39 37 33 32 32 31 30 31 31 31 29 30 34 35 33 33 31 30 32 32 32 33 33 34 34 34 35 35 35 34 34 34 33 32 32 31 30 29 29 30 31 30 29 28 28 27 27 27 26 26 25 25 25 26 26 26 26 27 28 29 30 30 31 31 31 31 31 31 33 36 39 41 43
38 36 35 36 36 37 37 37 36 35 36 37 36 37 37 35 34 34 33 32 31 30 29 28 29 33 35 34 33 31 31 33 31 30 31 31 30 31 32 33 33 32 32 32 32 31 31 31 30 30 29 30 31 31 29 28 28 28 27 27 27 26 25 25 25 25 25 25 26 26 27 28 29 29 29 30 30 30 29 29 30 33 36 38 40 41
37 37 37 37 37 37 38 38 36 34 35 35 32 33 34 35 35 35 34 34 33 31 30 30 30 31 35 35 32 31 32 33 32 31 30 29 30 31 33 33 33 32 32 31 31 30 30 30 30 29 29 30 30 30 29 28 28 28 27 27 26 26 25 24 25 25 25 25 26 26 27 28 29 29 29 29 29 29 29 28 30 33 36 38 39 38
37 39 39 39 38 38 39 37 35 35 35 34 31 31 31 32 33 33 33 34 32 31 33 34 31 29 34 36 32 30 33 34 33 32 29 29 30 32 34 34 34 33 33 33 32 31 30 30 30 29 29 30 30 29 29 28 28 27 27 27 26 25 25 24 24 24 24 25 25 26 27 28 28 28 29 29 29 29 29 29 31 34 35 36 36 36
38 40 39 38 39 39 37 34 34 37 36 33 31 29 28 28 29 29 31 32 30 31 34 34 32 30 33 38 35 31 33 34 32 30 29 30 30 31 32 33 34 33 33 33 33 31 31 30 30 30 29 30 29 29 28 28 27 27 27 26 26 25 24 24 24 24 24 24 25 26 27 27 27 27 27 28 28 29 29 30 32 34 33 33 35 35
39 39 38 38 39 37 34 32 33 35 34 32 31 29 27 27 27 28 29 30 29 32 35 33 33 31 31 36 36 33 32 32 31 30 29 29 29 29 30 31 32 32 31 32 32 31 31 30 29 29 29 29 29 28 28 27 27 26 26 26 25 25 24 24 24 23 23 23 24 25 26 27 26 26 27 28 28 29 29 31 32 33 32 33 34 35
41 40 39 39 38 36 34 33 33 33 33 34 33 31 28 27 28 28 28 29 30 32 32 30 31 32 32 35 34 30 28 28 28 28 26 26 25 26 26 27 28 28 29 29 30 30 30 30 29 29 29 29 28 28 27 27 26 26 26 25 25 24 24 24 23 23 22 23 23 25 26 26 25 26 26 27 28 29 29 30 31 31 31 33 34 35
43 44 42 40 40 39 38 36 34 34 36 36 34 33 31 29 28 29 29 30 32 32 29 28 29 31 34 37 36 32 30 29 28 27 26 25 24 23 23 24 25 26 27 28 28 29 29 29 29 29 29 29 28 27 27 27 26 26 25 25 25 24 24 23 23 22 22 22 23 24 25 25 24 25 26 26 27 28 27 29 29 29 30 32 32 33
40 42 43 43 42 43 43 40 38 38 39 39 37 36 34 30 28 30 30 29 31 31 29 30 30 30 33 36 37 37 36 35 33 31 30 28 27 25 24 25 26 26 27 27 28 29 29 30 29 29 29 28 27 27 27 27 26 25 25 25 24 24 23 23 22 21 21 22 22 24 25 25 23 24 25 25 26 26 26 26 27 27 28 29 29 29
39 39 42 45 44 44 46 45 42 40 39 40 39 36 36 33 31 31 31 30 30 28 28 30 30 31 33 32 32 33 32 31 31 29 29 29 29 28 26 26 26 25 25 26 27 28 29 30 29 28 28 27 27 27 27 27 26 25 25 25 24 24 23 23 22 21 21 21 22 23 24 24 23 23 24 23 23 24 24 24 25 25 25 26 25 22
41 40 40 42 40 41 45 45 41 39 39 40 38 37 38 37 34 31 30 29 28 26 28 31 32 34 35 35 35 34 33 31 30 28 28 28 29 28 27 26 25 24 24 24 26 28 29 29 28 27 27 27 27 27 27 27 26 25 25 25 24 24 23 23 22 21 21 21 21 22 23 23 22 22 22 22 22 22 22 22 22 22 22 22 20 14
38 38 37 37 37 40 42 42 41 40 39 38 40 41 40 38 36 32 30 30 29 30 32 32 33 35 36 37 38 38 38 37 34 32 31 29 29 28 28 28 26 25 25 25 26 27 28 28 27 27 27 27 27 27 27 27 27 26 25 24 24 23 23 22 22 21 20 20 21 21 22 22 21 20 21 21 20 21 20 20 19 19 19 18 15 8
36 36 36 36 37 39 38 37 40 41 38 37 41 42 38 36 36 35 33 31 31 33 33 33 36 37 35 35 35 35 36 37 36 35 32 30 30 30 30 30 28 27 26 26 27 27 28 28 27 27 27 27 28 27 28 27 27 26 25 24 24 23 23 22 21 20 20 20 20 20 21 21 20 19 19 19 19 19 19 18 17 16 16 14 11 5
37 37 38 38 36 35 35 36 38 40 39 38 40 40 38 36 36 37 36 33 33 35 34 35 37 38 38 38 37 35 34 33 33 32 30 30 30 30 30 31 30 29 28 28 28 28 28 28 28 28 28 28 28 27 27 26 26 25 24 24 23 23 22 22 21 20 20 20 20 20 20 20 19 18 17 18 17 18 18 17 15 14 13 12 8 5
39 38 38 38 37 36 36 37 39 40 40 39 39 40 40 37 35 37 38 35 34 35 35 35 35 37 41 43 42 41 38 34 33 32 32 32 30 30 30 30 30 30 29 29 29 28 28 29 28 28 28 28 27 27 26 25 25 25 24 24 23 23 22 21 21 21 20 20 20 20 19 19 18 17 16 16 16 16 17 16 14 12 11 10 8 6
39 39 37 37 38 38 39 41 42 42 42 41 41 41 41 40 36 36 37 37 36 35 35 36 36 38 39 39 40 42 41 39 37 35 34 33 30 30 30 30 31 31 31 30 30 29 29 29 29 28 28 28 27 27 26 26 26 25 24 24 24 23 22 21 21 21 20 20 20 19 19 18 17 16 15 15 15 15 15 15 13 11 9 8 7 5
39 40 39 38 39 40 43 44 44 44 43 42 42 42 42 42 39 36 37 39 39 37 36 36 38 38 36 35 37 38 36 36 35 33 33 32 32 32 33 33 34 33 33 32 31 30 30 30 29 29 29 28 27 27 26 26 26 25 25 24 24 23 22 22 21 21 21 20 20 20 19 19 18 16 15 14 14 13 13 13 12 11 9 8 7 5
41 40 41 41 40 41 41 40 40 41 43 44 43 42 41 40 41 39 38 39 40 40 38 36 37 38 37 35 34 33 32 31 30 30 30 31 32 33 34 35 35 34 33 32 31 31 31 30 30 29 29 28 28 27 27 27 26 26 25 25 24 23 23 22 22 21 21 21 21 20 20 19 18 17 15 14 13 13 12 11 11 11 10 9 8 7
40 40 40 40 39 40 40 40 40 40 42 44 44 45 44 43 44 42 38 37 37 39 39 37 38 40 38 36 34 33 32 31 30 29 29 29 29 30 31 32 33 33 33 32 32 31 31 31 30 30 29 29 28 27 27 27 27 27 26 25 25 24 23 22 22 22 21 21 21 21 20 20 19 18 16 15 14 13 12 11 10 9 10 10 9 8
35 37 39 39 37 37 38 40 41 41 43 45 46 48 48 47 45 41 38 36 36 40 42 40 40 40 38 36 36 36 34 33 32 31 30 29 29 28 27 28 30 31 32 32 32 32 32 32 32 31 30 29 28 28 28 28 28 27 27 26 26 25 24 23 22 22 22 22 22 22 21 20 19 18 17 16 14 13 12 11 10 8 8 9 10 9
33 35 38 38 39 39 40 41 42 44 46 46 47 49 48 47 46 43 40 39 37 40 43 42 41 42 39 36 35 35 35 34 33 31 30 30 30 29 28 27 28 29 30 31 32 33 33 33 32 32 30 30 29 29 29 29 29 29 28 27 27 26 24 23 23 23 23 23 23 23 23 22 20 19 18 17 16 15 13 12 11 9 8 8 9 10
34 35 36 37 39 40 41 42 43 45 46 46 47 49 49 49 49 46 43 41 39 39 42 43 43 45 45 40 36 35 35 34 34 32 31 30 30 30 30 29 28 28 29 31 31 33 34 34 33 32 31 31 30 30 31 31 31 30 29 29 28 26 25 24 24 24 24 24 24 24 24 23 22 20 19 18 17 16 15 13 12 11 10 9 9 10
33 35 36 37 38 38 38 40 40 42 47 49 49 51 51 50 50 49 46 44 43 41 42 42 44 48 50 45 40 38 37 35 35 33 32 31 31 31 30 30 29 30 30 31 32 33 34 35 34 33 32 32 31 32 32 32 32 32 31 30 29 28 27 26 25 25 24 24 24 25 25 24 23 22 20 19 18 17 17 15 14 13 12 11 10 10
34 36 37 36 37 38 38 39 39 41 44 48 51 51 51 50 51 51 50 49 48 45 44 45 47 51 51 46 43 42 39 37 37 35 34 33 33 33 31 31 31 30 30 31 32 33 35 36 35 34 33 33 32 32 32 33 33 32 32 31 30 30 29 28 27 26 25 25 25 25 25 24 24 23 22 21 20 19 18 17 16 15 14 13 12 11
34 36 36 34 35 38 37 37 39 40 41 45 50 52 52 52 52 52 51 52 52 50 49 49 51 52 50 46 45 43 40 39 39 38 37 36 36 35 33 32 32 32 32 32 33 35 36 36 36 35 34 33 33 33 33 33 33 33 32 32 31 31 30 29 28 27 27 27 26 26 25 25 24 24 23 23 22 21 20 19 18 18 17 16 15 14
33 34 35 32 34 38 38 36 37 38 39 41 46 49 52 53 53 53 52 52 52 52 52 53 53 53 50 47 46 44 41 41 42 41 41 40 39 39 38 36 35 34 34 33 34 36 37 38 37 36 35 35 35 34 34 34 34 33 33 33 33 32 31 30 29 28 28 28 28 27 26 25 25 25 24 24 23 22 22 21 20 20 19 18 18 17
34 35 35 32 33 38 37 35 36 38 39 42 44 47 50 51 52 52 51 51 52 52 53 54 55 53 48 45 46 45 44 45 44 43 42 42 41 42 42 42 41 39 37 36 36 37 37 38 39 38 38 38 38 37 36 36 36 35 35 35 34 33 32 31 31 30 29 29 29 28 28 27 26 26 26 25 25 24 24 23 23 22 21 21 20 20
36 36 37 34 35 39 38 35 35 37 37 40 42 43 46 49 50 51 51 52 52 51 51 53 52 49 45 42 43 45 46 45 44 43 42 42 42 42 43 44 45 44 42 39 39 40 39 39 39 40 40 40 40 40 40 39 38 38 38 37 36 35 34 33 33 32 31 30 30 30 30 29 28 27 27 27 26 26 25 25 25 24 24 23 22 21
38 38 39 37 36 40 42 38 35 36 38 39 38 39 42 45 47 51 53 53 52 51 50 50 49 47 45 44 45 48 47 45 44 43 43 43 43 43 43 44 45 46 46 44 42 43 42 41 40 41 41 42 42 42 42 42 42 41 40 40 38 37 36 36 34 33 33 32 31 31 31 31 30 30 29 29 28 28 27 27 26 26 26 25 24 23
42 41 41 41 39 40 42 40 37 38 39 37 36 36 39 40 42 47 51 52 53 51 51 51 50 50 49 48 48 48 47 46 45 44 45 45 45 44 44 44 45 46 47 47 46 46 46 44 43 42 42 42 42 42 42 43 43 43 42 42 40 39 38 38 36 35 34 33 33 32 32 33 33 32 31 30 30 30 29 28 28 28 27 27 26 26
45 44 42 42 40 40 41 41 40 38 38 38 38 37 36 35 37 41 47 51 52 52 52 52 52 52 52 50 50 48 45 45 45 45 47 47 46 46 46 45 44 44 45 46 47 47 47 47 47 47 46 45 44 44 44 44 43 43 43 43 42 41 40 40 39 37 36 35 34 33 33 34 34 34 33 32 32 31 31 30 29 29 28 28 28 27
45 45 44 42 42 41 42 44 43 41 41 43 43 40 38 37 37 38 42 46 48 49 50 51 52 52 51 50 51 48 44 44 46 47 49 49 46 46 46 45 44 43 44 45 46 46 47 48 49 50 49 48 46 46 46 45 44 44 44 44 43 42 41 41 41 39 38 37 35 34 34 34 35 35 35 34 33 32 32 31 31 30 30 29 29 29
43 45 45 44 44 42 43 44 43 42 43 43 41 40 40 39 38 38 40 43 44 46 48 49 51 51 50 50 51 47 43 46 49 50 50 49 46 45 45 45 45 44 43 44 44 46 47 48 48 49 49 49 48 47 47 47 46 45 45 45 44 43 42 42 42 42 40 38 37 35 35 35 35 35 35 35 34 33 33 32 32 31 31 31 30 30
40 41 43 45 45 44 43 43 42 43 43 41 42 42 39 36 36 37 39 42 41 41 42 44 48 50 49 49 48 45 44 48 52 51 49 46 45 46 45 45 45 45 44 44 45 46 47 47 48 49 49 49 48 48 47 47 47 46 46 45 45 43 43 43 43 43 42 40 38 37 36 36 36 36 36 36 35 34 34 33 33 32 32 32 31 31
36 37 40 43 44 45 45 44 43 44 43 42 44 44 39 35 36 37 37 37 37 38 38 39 42 46 47 47 46 44 45 48 51 51 47 44 44 45 44 44 44 45 45 45 45 46 47 47 47 48 48 48 48 48 47 47 46 47 46 46 45 45 44 44 43 43 43 42 40 39 38 37 38 37 37 37 36 34 34 34 33 33 32 32 32 32
33 34 37 40 43 45 46 45 44 44 44 44 45 43 39 37 38 38 37 35 35 37 39 39 39 41 42 43 43 43 45 48 50 49 43 41 42 43 42 43 44 44 44 44 45 45 45 45 46 46 47 47 47 46 45 45 45 46 46 46 46 46 45 45 43 42 43 43 41 40 39 38 39 39 38 37 36 35 34 34 33 33 33 32 32 32
31 32 33 36 38 40 42 43 43 44 43 43 43 41 38 39 40 39 38 37 36 36 37 37 38 38 38 39 41 43 44 47 48 46 41 40 41 40 40 41 42 42 42 43 43 44 44 44 44 45 45 46 45 44 44 44 44 45 45 45 46 45 44 44 43 42 43 44 42 41 40 39 40 40 38 37 37 36 35 34 33 33 33 33 32 32
31 31 32 33 34 35 37 39 40 41 41 42 43 40 38 39 39 37 36 37 38 38 37 36 35 36 37 40 41 43 44 44 44 43 42 42 42 41 40 40 40 41 42 41 42 43 43 42 43 43 44 44 44 43 43 44 44 43 43 44 45 44 43 43 43 43 43 44 43 41 40 39 40 40 39 38 37 36 35 34 33 33 33 33 33 32
31 31 31 31 31 31 33 33 32 33 36 39 41 41 39 39 38 36 35 36 37 37 37 36 35 35 37 39 41 42 43 42 42 41 42 43 43 43 42 41 40 41 41 41 41 42 42 42 42 42 42 43 42 42 43 43 43 43 43 44 43 43 43 43 42 42 43 44 43 42 41 40 40 41 40 39 38 37 35 35 34 33 33 33 33 33
31 30 31 31 31 32 32 31 28 27 28 31 34 37 39 38 36 35 34 34 35 35 35 35 36 36 35 36 38 40 41 42 41 40 39 40 41 42 43 42 42 42 42 43 43 43 43 43 42 42 42 42 42 42 42 42 43 42 43 43 43 43 43 43 42 42 43 43 43 42 41 41 41 41 40 39 39 38 36 35 35 34 34 33 33 33
29 28 28 29 30 31 32 33 31 29 29 29 30 33 36 37 35 34 34 34 34 35 35 34 35 35 34 34 35 36 38 40 41 39 38 38 38 39 40 41 42 43 44 44 45 44 43 43 42 42 42 41 42 42 42 42 42 43 43 43 43 43 43 43 42 42 42 43 43 42 42 41 41 41 40 40 40 39 37 36 36 35 35 34 34 34
27 27 28 29 29 29 30 31 31 31 31 31 30 31 33 35 35 34 34 33 33 34 35 34 34 34 34 33 34 35 37 38 39 38 37 37 37 37 38 39 41 42 44 44 45 44 43 43 42 42 41 41 41 42 42 43 43 43 42 42 42 42 42 42 42 42 42 42 42 42 42 42 41 40 40 40 40 39 38 37 37 36 36 35 35 35
25 26 27 29 30 30 30 29 29 31 32 32 31 31 33 35 35 33 33 33 33 33 35 35 35 34 34 34 35 36 37 37 38 38 37 37 37 36 37 39 40 42 43 44 44 45 44 44 43 42 41 40 40 41 42 42 43 43 42 41 41 41 41 41 41 41 42 42 41 42 42 42 41 41 40 40 40 39 38 38 38 38 37 37 36 35
24 25 26 27 28 29 29 28 28 30 32 32 32 32 33 33 34 34 34 35 34 32 32 33 34 35 34 35 35 36 37 37 37 37 37 37 37 36 37 38 39 40 41 42 44 44 44 43 43 42 41 40 40 40 41 41 42 42 42 41 41 40 40 40 40 41 41 41 41 42 42 42 41 41 40 40 39 39 38 38 38 38 38 37 37 36
26 27 27 28 30 30 29 29 28 29 30 31 31 32 32 33 33 34 34 34 34 34 32 32 33 34 34 34 34 34 35 36 36 36 36 36 36 36 36 37 38 40 41 41 41 42 42 42 42 42 41 40 40 40 41 41 41 42 42 42 41 41 40 40 40 40 41 41 41 42 42 41 41 40 40 39 39 38 38 38 38 38 38 37 37 37
29 29 29 29 31 31 31 30 30 30 30 30 30 32 33 33 34 35 34 32 33 34 33 33 33 33 33 33 33 32 33 34 34 35 36 35 35 35 36 36 37 38 39 39 39 39 40 41 41 40 40 40 40 40 40 41 41 41 41 41 41 41 40 40 39 39 40 41 41 42 41 41 41 40 40 39 38 38 38 38 38 38 38 37 37 37
Wind_Direction
234 234 234 235 235 234 232 233 237 241 242 241 240 240 242 242 243 243 243 243 243 246 246 245 248 249 247 247 247 247 247 247 247 246 247 247 248 249 250 250 250 250 251 250 250 250 251 252 253 254 254 255 254 253 252 253 255 257 259 261 262 264 265 266 268 269 271 273 275 277 278 279 280 281 281 282 282 282 280 278 277 276 275 273 271 269
234 236 236 236 236 235 234 235 239 241 241 242 241 242 243 242 243 243 243 244 244 247 248 248 251 251 248 248 248 247 247 246 244 244 246 246 247 248 249 250 250 251 251 249 249 249 250 251 251 252 253 253 251 250 250 252 255 257 258 260 262 263 264 265 267 269 271 273 276 278 280 281 282 282 283 283 284 283 282 280 279 279 278 275 273 271
235 237 237 235 236 236 234 235 237 239 241 241 241 243 244 243 243 244 244 245 245 247 250 252 254 253 249 248 247 245 245 246 244 242 244 246 246 247 248 249 250 251 250 249 249 249 250 251 251 251 251 250 249 249 250 252 255 257 258 260 261 262 263 265 267 269 272 275 277 279 281 282 282 283 285 286 285 284 284 283 282 280 279 277 275 273
236 238 237 234 234 235 235 235 235 238 240 240 240 242 243 242 243 245 245 245 246 248 252 255 256 254 251 249 246 243 243 245 245 243 245 246 246 247 247 249 250 250 251 249 248 249 250 251 249 249 249 248 247 248 250 252 254 257 258 259 260 261 263 265 267 270 273 276 278 280 281 282 283 285 287 287 286 286 287 286 284 281 280 279 278 275
237 239 237 233 233 234 235 235 235 238 240 240 239 240 243 241 242 247 246 246 248 248 249 254 257 255 251 248 247 245 244 246 247 246 246 246 246 247 248 249 250 251 251 250 249 249 250 249 247 246 245 245 246 248 249 251 254 257 258 258 259 261 263 265 267 270 273 276 279 280 281 282 284 286 287 287 287 289 290 289 286 283 283 282 281 278
239 237 235 234 234 234 234 236 235 236 240 241 240 240 243 243 242 245 245 247 251 250 248 250 255 253 248 246 247 247 246 247 246 245 246 246 245 245 247 249 250 250 250 250 250 249 248 246 244 243 243 243 245 247 249 251 254 256 257 258 259 261 263 265 268 270 273 276 279 280 281 282 285 287 288 287 289 291 291 290 287 287 287 286 284 280
239 235 234 234 235 234 236 237 235 235 239 242 241 240 241 243 242 243 244 245 248 249 249 247 249 252 251 247 245 246 247 247 246 245 245 246 244 244 245 248 249 249 248 248 248 247 245 244 242 242 242 243 245 247 249 252 253 255 256 257 258 260 262 265 267 269 273 276 278 280 281 282 286 288 288 288 290 292 292 290 290 292 292 290 288 283
237 233 234 235 235 235 237 239 235 233 238 242 243 241 239 240 241 242 243 244 246 249 249 245 245 252 254 249 245 245 248 249 249 247 248 248 246 245 246 247 248 247 246 246 246 245 244 243 242 241 242 243 244 247 250 251 252 253 255 256 257 259 262 264 267 269 273 277 279 280 281 283 287 288 288 290 291 293 291 289 292 296 296 294 291 285
238 234 233 233 235 237 238 238 233 231 237 242 243 243 240 240 240 240 241 243 246 249 248 242 240 248 252 248 245 246 248 249 248 248 249 249 247 245 246 247 248 248 248 247 247 245 243 242 242 241 242 243 245 247 249 250 251 253 254 255 256 258 261 264 266 269 273 277 279 280 281 283 287 288 288 290 292 292 289 289 294 297 298 298 294 286
240 239 237 234 235 237 238 238 233 231 237 239 238 240 240 240 241 240 240 242 243 246 246 241 236 243 251 250 246 245 247 248 247 247 248 247 248 248 248 249 250 250 249 249 248 245 243 242 242 242 243 243 245 247 249 250 250 252 253 254 255 257 260 263 265 269 273 277 280 281 281 284 287 289 289 290 292 291 288 290 296 298 299 300 297 289
240 241 241 238 237 238 237 238 238 235 234 234 235 236 237 238 240 240 241 241 241 245 246 240 235 240 250 251 246 244 247 248 248 248 248 248 250 251 251 251 250 249 248 247 247 244 242 242 241 241 242 243 245 247 248 249 249 250 251 252 254 256 259 262 265 269 273 277 280 281 281 284 287 289 289 291 292 290 289 292 296 298 300 302 299 292
238 238 239 239 239 237 235 237 240 237 232 232 235 234 235 237 238 239 239 239 241 245 245 241 238 239 244 248 246 245 247 246 246 247 249 249 250 251 251 249 248 247 247 245 244 242 240 239 240 240 241 243 244 246 246 247 248 249 250 251 253 255 258 261 264 268 273 277 280 281 282 285 288 290 290 290 291 291 292 295 297 299 301 302 300 296
238 238 238 239 238 235 233 234 236 235 233 234 233 230 233 236 237 238 239 240 243 244 245 243 241 240 243 247 247 246 246 245 243 245 247 248 248 249 249 248 246 247 248 245 242 240 237 237 238 238 239 241 243 244 244 245 247 248 249 250 252 254 256 260 264 267 272 276 279 282 283 285 289 291 290 290 291 292 295 298 301 301 303 305 304 301
239 239 236 236 238 235 233 231 232 233 232 232 230 229 231 233 237 239 239 243 245 244 243 241 242 244 246 247 247 247 248 249 248 247 247 247 248 249 250 250 251 250 249 246 243 239 236 235 236 237 238 240 242 243 242 244 246 247 248 250 251 254 256 259 263 266 271 275 279 282 283 286 289 291 291 291 291 293 296 300 303 303 307 312 312 309
237 240 235 233 236 234 233 234 234 233 233 233 232 232 232 232 237 241 241 242 244 244 241 238 240 242 241 243 245 245 247 248 249 248 246 247 248 248 250 250 251 249 247 245 242 238 235 234 236 237 239 240 241 242 242 244 245 246 248 249 251 253 255 258 262 265 270 275 278 282 284 286 289 292 292 293 292 293 296 301 305 306 310 317 320 320
237 241 238 235 236 232 232 236 234 232 234 235 234 234 234 235 238 243 244 242 243 244 240 238 242 242 243 249 249 246 246 245 246 247 245 245 246 245 247 248 249 248 245 242 239 236 234 234 236 238 239 241 241 241 242 243 244 246 247 249 250 252 254 257 261 264 269 273 277 281 283 285 289 291 292 293 293 294 296 301 307 311 313 319 326 334
238 243 240 237 238 233 232 235 232 231 234 234 232 232 235 238 237 240 243 242 242 245 241 239 244 246 248 252 248 244 246 245 244 245 245 245 245 244 246 248 248 247 244 240 237 235 234 235 237 239 240 240 240 241 242 243 244 246 247 248 249 251 253 255 259 263 267 271 275 280 283 285 288 290 291 293 293 293 295 300 308 315 317 318 326 337
240 244 240 237 238 235 235 235 234 235 234 232 232 233 235 238 238 238 241 240 240 244 243 239 241 244 244 246 244 241 244 245 244 245 246 248 247 247 248 247 244 243 242 239 237 235 235 236 239 240 240 240 240 241 242 243 244 245 246 246 247 248 251 253 257 261 265 268 273 278 282 285 287 289 291 292 293 293 294 299 306 314 320 320 318 307
241 244 242 239 238 236 235 234 233 235 234 234 236 234 232 236 236 234 236 238 238 242 245 241 241 243 241 242 244 242 241 244 244 244 247 249 249 248 248 245 242 241 242 240 236 235 236 238 239 239 239 240 240 240 241 242 243 243 244 245 246 247 250 252 256 259 262 266 271 276 280 284 286 288 291 292 294 293 292 295 301 309 318 322 312 270
240 242 242 240 238 235 233 231 230 231 232 234 237 234 232 236 237 235 235 238 239 240 244 243 242 243 243 243 245 244 244 245 246 245 247 249 248 245 244 243 241 240 240 239 237 236 237 238 238 238 238 238 238 239 240 240 241 241 242 243 245 247 249 251 254 257 260 264 267 272 276 281 285 287 290 293 293 293 292 291 295 301 309 318 312 266
238 238 240 239 237 234 232 231 231 230 230 231 233 232 232 233 236 238 238 237 239 240 242 243 244 245 244 243 244 245 246 246 246 246 247 247 246 243 244 244 243 241 240 239 238 238 238 237 237 237 237 237 237 238 239 239 240 240 241 243 244 246 248 250 253 255 258 261 264 267 271 276 280 284 288 291 293 294 293 290 288 291 298 306 305 270
235 237 238 237 234 233 234 235 235 234 232 231 231 231 231 231 233 237 238 236 237 240 240 243 247 246 244 244 244 245 246 247 247 247 248 248 247 246 247 247 246 244 240 239 238 238 238 237 236 236 237 237 237 237 238 238 239 240 241 242 244 246 248 250 252 254 256 259 261 264 267 270 274 279 283 286 290 293 293 291 285 281 282 287 288 265
237 238 238 237 235 235 238 238 237 237 235 234 234 232 231 231 231 234 237 236 236 238 240 244 248 246 244 245 246 246 246 247 248 248 248 248 247 247 248 247 246 243 240 237 238 238 238 237 236 235 235 235 235 236 237 238 239 240 241 242 243 245 247 249 251 254 255 257 259 261 263 266 268 272 275 279 284 288 290 291 286 277 271 270 270 259
238 238 237 238 238 238 239 238 237 237 234 233 234 233 232 231 231 233 238 239 238 237 237 240 243 243 243 244 244 244 243 244 244 244 244 246 247 247 248 247 244 241 239 237 237 237 237 237 236 235 233 233 234 236 237 238 239 240 241 242 244 245 246 247 250 253 255 255 257 258 260 263 264 266 269 271 276 280 283 285 285 278 269 261 257 251
237 237 236 236 237 237 236 236 235 234 232 232 232 232 232 232 232 234 237 239 240 237 235 238 241 242 242 243 243 243 243 242 241 240 242 246 247 247 248 247 242 239 238 237 236 236 236 236 235 233 232 232 234 236 237 238 239 240 242 243 245 246 246 246 248 251 254 254 254 256 257 260 261 262 263 264 267 271 274 276 278 275 267 256 250 245
239 239 237 236 236 235 235 235 233 232 232 233 233 232 232 230 230 232 234 235 237 237 236 239 242 241 240 241 243 242 243 243 242 241 243 245 247 247 247 245 242 239 238 236 236 236 235 234 234 232 231 232 234 236 237 239 240 241 242 243 244 245 245 245 247 249 252 253 253 253 255 257 258 259 259 259 260 263 265 267 268 268 263 254 247 242
240 240 238 240 242 241 242 242 238 234 232 232 232 231 231 230 229 231 233 234 235 237 238 238 240 242 240 239 240 241 243 244 243 242 243 244 246 247 245 244 241 240 239 237 237 237 234 233 232 231 232 234 236 237 238 239 240 242 243 244 244 245 245 245 246 248 250 252 252 252 253 254 256 257 256 256 256 257 259 259 259 259 258 252 245 239
243 242 240 243 246 246 247 247 243 237 233 231 231 231 231 230 229 230 233 233 233 237 239 237 237 241 241 239 238 240 242 243 243 243 243 243 245 246 245 243 241 240 240 239 239 237 234 231 231 232 235 236 236 238 239 240 242 243 244 245 246 247 247 246 246 247 248 250 251 252 252 253 254 255 254 253 252 252 254 254 253 252 252 249 243 238
244 244 243 246 249 248 246 246 245 243 238 233 231 231 231 229 228 229 232 233 232 235 239 237 236 239 241 240 239 240 242 244 246 246 244 241 240 241 243 244 245 244 242 242 240 237 233 231 232 234 236 236 236 237 239 241 242 244 245 246 247 248 248 248 247 247 247 248 249 251 252 253 253 253 253 251 249 249 250 251 250 248 247 246 243 238
244 244 243 247 250 249 247 247 247 246 245 240 235 232 231 230 230 231 232 233 234 236 238 239 239 240 241 240 240 240 242 244 247 248 247 244 241 239 239 240 243 244 244 243 241 237 234 233 234 236 236 236 235 236 239 241 242 243 244 245 246 247 248 248 248 247 247 248 249 250 251 252 252 252 251 250 248 247 247 248 248 246 244 244 243 240
243 243 243 247 250 248 247 248 248 247 248 247 242 236 233 231 231 231 232 233 234 236 237 239 240 241 241 241 240 241 242 243 245 246 246 247 246 245 244 242 242 241 240 241 240 238 236 236 236 236 236 236 236 237 240 242 243 244 244 245 245 246 247 247 247 247 248 248 250 250 249 249 250 250 250 249 248 246 245 245 246 244 242 241 241 240
243 244 244 246 247 245 245 248 251 251 251 248 244 240 235 232 231 232 233 233 234 235 236 238 239 240 240 240 241 242 243 243 244 245 245 245 245 246 247 246 245 243 241 240 240 239 239 238 237 237 236 237 238 239 241 244 245 246 246 245 245 245 245 245 245 245 247 249 250 250 249 248 247 248 249 248 247 245 244 244 244 243 242 239 238 238
244 245 244 244 245 245 245 248 253 255 252 245 240 239 237 236 234 234 234 234 234 235 236 237 239 240 240 240 240 241 242 242 243 244 244 244 244 244 244 245 246 245 243 242 241 241 241 240 239 238 238 238 239 241 243 245 246 246 246 246 246 245 245 244 244 244 246 248 249 249 249 248 247 246 247 247 247 245 244 243 243 242 241 240 238 237
243 244 244 244 246 247 247 249 251 250 245 241 239 240 239 238 237 235 235 235 235 236 238 240 242 242 240 240 240 241 242 242 243 243 243 243 244 244 244 244 244 245 244 243 243 242 242 242 241 240 240 240 241 243 245 246 247 247 247 247 247 246 245 244 243 244 245 246 247 247 248 248 247 246 246 246 246 245 244 243 242 242 242 240 239 237
243 244 245 245 246 247 247 247 245 242 241 241 242 241 242 241 240 239 238 237 236 237 239 241 242 242 242 241 241 243 243 243 243 244 244 243 244 244 244 244 244 244 244 244 244 243 243 242 242 242 242 243 244 246 247 247 248 248 247 247 247 247 246 244 243 243 244 245 246 246 247 247 247 246 245 245 244 244 243 243 242 242 241 240 239 237
242 243 244 244 244 245 244 242 241 242 245 245 244 242 242 242 242 242 241 239 237 237 238 240 242 242 243 243 243 243 243 244 245 244 243 243 243 243 244 244 244 244 244 244 244 244 243 244 244 244 245 245 246 247 247 246 247 247 247 247 247 247 246 244 242 242 243 244 245 246 246 246 247 246 245 244 243 243 242 241 241 241 241 240 239 238
240 241 242 241 241 242 243 243 245 248 248 245 243 242 241 242 243 245 246 243 239 238 239 241 242 242 242 243 243 243 242 243 245 244 242 242 242 243 244 245 245 245 245 244 244 243 243 244 245 245 246 246 246 246 246 246 246 247 247 247 247 247 247 245 243 242 243 244 244 245 245 246 246 245 245 244 242 241 241 240 240 240 240 240 239 238
239 239 239 240 239 239 242 245 246 246 244 241 241 241 241 243 246 249 251 249 244 242 242 242 242 242 242 242 242 241 241 243 245 244 241 239 241 244 245 246 246 246 246 245 244 243 243 243 244 245 245 245 245 245 245 246 246 246 246 246 246 246 246 245 244 243 242 243 243 244 244 245 245 244 244 243 242 241 240 240 239 239 239 239 239 238
240 240 239 240 239 238 239 242 243 244 243 241 241 241 242 245 248 251 253 251 247 246 247 245 243 242 242 242 241 240 241 243 244 243 240 238 241 245 245 245 246 246 245 245 244 243 243 243 243 243 243 244 244 244 245 245 245 245 245 245 245 245 246 245 245 243 242 242 243 243 243 244 245 244 243 243 242 240 240 239 239 239 239 238 239 239
241 241 240 239 239 238 238 240 242 244 243 241 241 242 243 247 251 251 250 248 248 249 250 249 247 244 242 242 241 240 240 241 243 243 242 240 242 244 244 244 244 245 245 245 245 244 244 243 243 243 243 243 244 245 245 245 244 244 245 245 244 245 245 245 245 244 243 241 241 242 242 243 244 244 242 242 241 240 239 238 238 238 238 238 238 239
243 242 241 240 239 238 239 241 243 243 243 241 242 243 245 246 247 245 244 246 248 248 249 249 249 247 245 243 241 240 240 240 243 245 244 242 241 241 242 243 244 244 245 245 244 244 244 243 243 243 243 244 244 244 244 243 243 243 244 244 244 244 245 245 245 244 242 240 240 240 241 242 243 243 241 241 240 239 239 238 237 237 237 238 238 238
244 243 242 240 240 239 239 241 243 244 241 238 239 242 244 243 242 242 243 246 247 247 249 250 248 247 247 246 244 244 244 244 245 245 243 241 240 239 240 241 242 243 244 244 244 243 243 243 243 242 243 243 244 243 242 242 242 243 243 244 244 244 244 244 244 243 241 239 239 239 240 241 242 242 240 240 239 239 238 238 237 236 236 237 238 238
245 245 244 241 240 240 240 240 242 244 243 239 238 239 239 239 241 243 245 245 245 246 249 250 248 247 248 247 246 247 248 248 247 246 243 241 240 240 240 240 240 241 242 242 242 242 241 242 242 242 243 244 244 244 242 241 242 242 243 244 244 244 244 243 243 242 241 239 238 239 239 240 240 240 239 238 238 238 238 238 237 236 236 236 237 237
244 244 245 243 240 239 238 238 240 245 245 241 238 236 237 239 241 242 242 242 243 244 245 246 247 248 247 247 247 247 247 248 247 246 245 243 242 241 240 239 239 240 240 240 241 241 241 242 243 243 244 244 244 243 242 241 241 242 242 243 244 243 242 241 241 241 240 238 237 238 239 239 239 239 238 237 236 236 237 237 237 236 236 235 236 237
244 243 245 246 243 241 241 241 241 242 242 239 237 235 235 237 239 239 240 241 242 243 244 244 245 247 247 246 246 246 245 246 247 246 245 243 243 242 240 239 239 239 239 241 242 242 242 243 243 244 244 243 243 242 242 241 240 240 241 242 242 242 241 240 239 239 238 237 237 238 238 238 238 238 237 236 236 236 236 236 236 236 235 235 235 236
246 244 245 246 245 245 244 242 239 239 240 239 238 236 235 235 238 240 242 243 242 244 245 244 245 246 246 246 246 246 246 247 247 246 245 243 243 242 241 241 240 240 240 241 241 241 241 242 243 243 243 243 242 241 241 241 240 240 241 241 240 240 239 238 238 238 237 236 237 238 237 237 238 238 237 235 235 236 236 236 236 236 235 235 235 236
247 244 243 244 244 245 244 240 236 237 239 240 240 238 235 236 238 241 242 243 244 245 246 245 245 245 245 246 247 248 248 249 249 247 245 243 242 242 241 241 241 241 241 240 239 239 239 240 241 242 243 243 242 241 240 240 240 240 240 240 239 239 238 237 237 237 236 236 237 237 237 236 236 236 236 235 235 235 236 236 236 237 236 236 236 236
245 244 243 243 244 244 245 242 240 239 240 242 243 241 237 235 237 240 242 244 246 247 246 246 246 246 246 247 249 250 250 250 250 249 247 244 242 242 242 241 242 243 242 240 238 238 239 239 240 241 242 243 242 241 239 239 239 239 239 239 238 237 237 237 236 236 235 235 235 235 236 235 235 235 234 234 234 235 235 236 236 237 237 237 237 237
245 244 243 243 244 244 244 243 242 242 242 241 242 240 237 236 238 240 243 245 246 248 248 248 248 247 247 249 251 251 251 251 251 250 248 245 243 243 243 242 242 241 240 238 238 238 239 240 241 241 242 242 241 239 239 238 238 238 238 238 237 236 236 236 235 235 234 233 233 234 234 234 234 234 233 233 234 234 235 236 236 237 238 238 238 238
246 246 245 245 246 245 244 241 241 245 245 242 240 240 240 240 240 241 243 246 246 247 249 250 249 249 248 248 249 250 250 251 250 249 247 245 244 244 244 244 243 240 238 238 239 239 240 241 241 241 241 240 239 238 238 238 237 237 238 238 238 237 236 235 235 234 233 233 232 232 232 233 233 232 232 232 233 233 235 236 237 237 238 239 239 239
246 247 248 248 247 247 246 244 243 245 246 243 242 243 245 245 243 241 241 244 245 246 247 249 251 251 249 248 248 249 249 249 249 248 247 245 245 245 245 244 242 239 238 239 239 240 241 241 241 240 240 238 238 237 237 238 237 237 237 238 237 236 235 235 234 234 233 232 231 231 230 230 230 230 231 231 232 233 234 235 237 238 238 239 240 240